Murray, KY

1:15 AM CST on November 22, 2017 (GMT -0600)
Kyle-Oakley

Weather History for KCEY - May, 2014

Change the Weather History Date:

Tuesday, May 6, 2014

  Actual Average (KPAH) Record (KPAH)
Temperature  
Mean Temperature 74 °F -  
Max Temperature 84 °F 74 °F 91 °F (2012)
Min Temperature 64 °F 53 °F 35 °F (1968)
Cooling Degree Days 9    
Growing Degree Days 24 (Base 50)    
Moisture  
Dew Point 52 °F    
Average Humidity 46    
Maximum Humidity 68    
Minimum Humidity 28    
Precipitation  
Precipitation 0.00 in - - ()
Sea Level Pressure  
Sea Level Pressure 29.86 in    
Wind  
Wind Speed 10 mph (SSW)    
Max Wind Speed 14 mph    
Max Gust Speed 23 mph    
Visibility 10 miles    
Events      
Averages and records for this station are not official NWS values.
T = Trace of Precipitation, MM = Missing Value Source: NWS Daily Summary

Daily Weather History Graph

Daily Weather History Graph

Search for Another Location

Airport or City:

Trip Planner

Search our weather history database for the weather conditions in past years. The results will help you decide how hot, cold, wet, or windy it might be!

Date:

Astronomy

May. 06, 2014 Rise Set
Actual Time 5:54 AM CDT 7:46 PM CDT
Civil Twilight 5:26 AM CDT 8:14 PM CDT
Nautical Twilight 4:52 AM CDT 8:48 PM CDT
Astronomical Twilight 4:15 AM CDT 9:25 PM CDT
Moon 12:08 PM CDT (5/6) 1:06 AM CDT (5/6)
Length of Visible Light 14h 48m
Length of Day
13h 51m
Waxing Crescent, 46% of the Moon is Illuminated
May 6
Waxing Crescent
May 6
First Quarter
May 14
Full
May 21
Last Quarter
May 28
New

Hourly Weather History & Observations

Time (CDT) Temp. Heat Index Dew Point Humidity Pressure Visibility Wind Dir Wind Speed Gust Speed Precip Events Conditions
12:15 AM 68.0 °F - 46.4 °F 46% 29.86 in 10.0 mi SSW 9.2 mph - N/A   Clear
12:35 AM 68.0 °F - 48.2 °F 49% 29.85 in 10.0 mi SSW 9.2 mph - N/A   Clear
12:55 AM 68.0 °F - 48.2 °F 49% 29.85 in 10.0 mi SW 9.2 mph - N/A   Clear
1:15 AM 68.0 °F - 48.2 °F 49% 29.85 in 10.0 mi SW 9.2 mph 17.3 mph N/A   Clear
1:35 AM 68.0 °F - 48.2 °F 49% 29.84 in 10.0 mi SSW 10.4 mph 17.3 mph N/A   Clear
1:55 AM 66.2 °F - 48.2 °F 52% 29.84 in 10.0 mi SSW 10.4 mph 16.1 mph N/A   Clear
2:15 AM 66.2 °F - 48.2 °F 52% 29.84 in 10.0 mi SW 9.2 mph - N/A   Clear
2:35 AM 66.2 °F - 48.2 °F 52% 29.84 in 10.0 mi SSW 8.1 mph - N/A   Clear
6:55 AM 64.4 °F - 53.6 °F 68% 29.89 in 10.0 mi SSW 6.9 mph - N/A   Clear
7:15 AM 66.2 °F - 55.4 °F 68% 29.89 in 10.0 mi SW 8.1 mph - N/A   Clear
7:35 AM 68.0 °F - 55.4 °F 64% 29.90 in 10.0 mi SW 10.4 mph - N/A   Clear
7:55 AM 68.0 °F - 57.2 °F 68% 29.90 in 10.0 mi SW 10.4 mph - N/A   Clear
8:15 AM 68.0 °F - 57.2 °F 68% 29.90 in 10.0 mi SW 11.5 mph 17.3 mph N/A   Clear
9:15 AM 73.4 °F - 59.0 °F 61% 29.90 in 10.0 mi WSW 11.5 mph - N/A   Clear
9:35 AM 73.4 °F - 59.0 °F 61% 29.90 in 10.0 mi SW 13.8 mph 17.3 mph N/A   Clear
9:55 AM 75.2 °F - 59.0 °F 57% 29.90 in 10.0 mi WSW 8.1 mph 18.4 mph N/A   Clear
10:15 AM 75.2 °F - 59.0 °F 57% 29.90 in 10.0 mi SW 11.5 mph 17.3 mph N/A   Clear
10:35 AM 75.2 °F - 59.0 °F 57% 29.90 in 10.0 mi SW 9.2 mph 16.1 mph N/A   Clear
10:55 AM 77.0 °F - 59.0 °F 54% 29.90 in 10.0 mi SSW 12.7 mph - N/A   Clear
11:15 AM 77.0 °F - 59.0 °F 54% 29.90 in 10.0 mi SW 9.2 mph - N/A   Clear
11:35 AM 77.0 °F - 59.0 °F 54% 29.89 in 10.0 mi South 10.4 mph - N/A   Clear
11:55 AM 78.8 °F - 60.8 °F 54% 29.89 in 10.0 mi SW 8.1 mph - N/A   Clear
12:15 PM 77.0 °F - 59.0 °F 54% 29.88 in 10.0 mi South 10.4 mph 16.1 mph N/A   Clear
12:35 PM 80.6 °F 81.1 °F 59.0 °F 48% 29.88 in 10.0 mi WSW 11.5 mph - N/A   Clear
12:55 PM 80.6 °F 80.5 °F 55.4 °F 42% 29.87 in 10.0 mi SW 9.2 mph - N/A   Clear
1:15 PM 80.6 °F 80.5 °F 55.4 °F 42% 29.87 in 10.0 mi SSW 8.1 mph 16.1 mph N/A   Clear
1:35 PM 80.6 °F 80.5 °F 55.4 °F 42% 29.87 in 10.0 mi SSW 10.4 mph 20.7 mph N/A   Clear
1:55 PM 82.4 °F 81.4 °F 53.6 °F 37% 29.86 in 10.0 mi SW 12.7 mph 18.4 mph N/A   Clear
2:15 PM 82.4 °F 81.4 °F 53.6 °F 37% 29.86 in 10.0 mi SSW 12.7 mph 18.4 mph N/A   Clear
2:35 PM 82.4 °F - 51.8 °F 35% 29.85 in 10.0 mi SSW 11.5 mph 19.6 mph N/A   Clear
3:15 PM 84.2 °F - 50.0 °F 30% 29.84 in 10.0 mi SSW 11.5 mph 19.6 mph N/A   Clear
3:35 PM 84.2 °F - 48.2 °F 29% 29.84 in 10.0 mi South 13.8 mph 19.6 mph N/A   Clear
3:55 PM 84.2 °F - 48.2 °F 29% 29.83 in 10.0 mi SSW 12.7 mph 20.7 mph N/A   Clear
4:15 PM 84.2 °F - 50.0 °F 30% 29.83 in 10.0 mi South 13.8 mph 18.4 mph N/A   Clear
4:35 PM 84.2 °F - 48.2 °F 29% 29.83 in 10.0 mi SW 8.1 mph 23.0 mph N/A   Clear
4:55 PM 84.2 °F - 48.2 °F 29% 29.83 in 10.0 mi SSW 12.7 mph 19.6 mph N/A   Clear
5:15 PM 82.4 °F - 46.4 °F 28% 29.83 in 10.0 mi South 11.5 mph 19.6 mph N/A   Clear
5:35 PM 82.4 °F - 46.4 °F 28% 29.83 in 10.0 mi SSW 10.4 mph 17.3 mph N/A   Clear
5:55 PM 82.4 °F - 46.4 °F 28% 29.83 in 10.0 mi SSW 11.5 mph 20.7 mph N/A   Clear
6:15 PM 82.4 °F - 46.4 °F 28% 29.83 in 10.0 mi SSW 9.2 mph 17.3 mph N/A   Clear
6:35 PM 80.6 °F - 46.4 °F 30% 29.83 in 10.0 mi SSW 6.9 mph - N/A   Clear
6:55 PM 80.6 °F - 48.2 °F 32% 29.83 in 10.0 mi SSW 5.8 mph - N/A   Clear
7:15 PM 78.8 °F - 46.4 °F 32% 29.83 in 10.0 mi SSW 8.1 mph - N/A   Clear
7:35 PM 77.0 °F - 46.4 °F 34% 29.83 in 10.0 mi South 5.8 mph - N/A   Clear
7:55 PM 75.2 °F - 48.2 °F 38% 29.84 in 10.0 mi South 5.8 mph - N/A   Clear
8:15 PM 73.4 °F - 48.2 °F 41% 29.84 in 10.0 mi South 5.8 mph - N/A   Clear
8:35 PM 73.4 °F - 50.0 °F 44% 29.84 in 10.0 mi South 5.8 mph - N/A   Clear
8:55 PM 73.4 °F - 50.0 °F 44% 29.84 in 10.0 mi South 6.9 mph - N/A   Clear
9:15 PM 73.4 °F - 50.0 °F 44% 29.85 in 10.0 mi South 6.9 mph - N/A   Clear
9:35 PM 71.6 °F - 50.0 °F 46% 29.86 in 10.0 mi South 8.1 mph - N/A   Clear
9:55 PM 71.6 °F - 50.0 °F 46% 29.87 in 10.0 mi South 6.9 mph - N/A   Clear
10:15 PM 71.6 °F - 50.0 °F 46% 29.87 in 10.0 mi South 6.9 mph - N/A   Clear
10:35 PM 71.6 °F - 50.0 °F 46% 29.87 in 10.0 mi South 6.9 mph - N/A   Clear
11:15 PM 68.0 °F - 50.0 °F 52% 29.87 in 10.0 mi South 6.9 mph - N/A   Clear
11:35 PM 68.0 °F - 51.8 °F 56% 29.88 in 10.0 mi South 8.1 mph - N/A   Clear
11:55 PM 68.0 °F - 51.8 °F 56% 29.89 in 10.0 mi South 5.8 mph - N/A   Clear